Location: Burland Observatory
(39.4088°N, 105.4217°W)
Time: 22:09:11
(UTC-07:00)

SR - Pass Details

Date: 16 December 2019
Orbit: 574 x 882 km, 66.7° (Epoch: 27 January)

Event Time Altitude Azimuth Distance (km) Brightness Sun altitude
Rises 06:20:43 0° 158° (SSE) 3,214 ? -10.3°
Reaches altitude 10° 06:24:03 10° 136° (SE) 2,356 ? -9.7°
Maximum altitude 06:27:03 15° 102° (ESE) 2,069 ? -9.2°
Drops below altitude 10° 06:30:10 10° 69° (ENE) 2,459 ? -8.6°
Sets 06:33:45 0° 47° (NE) 3,441 ? -8.0°
